Location: Unspecified
(0.0000°N, 0.0000°E)
Time: 08:44:49
(UTC+00:00)

N. Korean satellite - Pass Details

Date: 28 April 2017
Orbit: 461 x 518 km, 97.2° (Epoch: 27 June)

Event Time Altitude Azimuth Distance (km) Brightness Sun altitude
Rises 19:20:54 0° 196° (SSW) 2,484 10.2 -20.2°
Reaches altitude 10° 19:23:28 10° 217° (SW) 1,605 9.4 -20.8°
Maximum altitude 19:25:46 17° 259° (W) 1,239 9.4 -21.4°
Drops below altitude 10° 19:28:03 10° 301° (WNW) 1,603 10.2 -21.9°
Sets 19:30:37 0° 322° (NW) 2,478 11.0 -22.5°
